Calvi, France

2:41 PM CET on December 16, 2017 (GMT +0100)
Saint Catherine

Weather History for LFKC - December, 2012

Change the Weather History Date:

Monday, December 31, 2012

  Actual Average Record
Temperature  
Mean Temperature 47 °F -  
Max Temperature 57 °F 54 °F 64 °F (2006)
Min Temperature 37 °F 41 °F 32 °F (2014)
Degree Days  
Heating Degree Days 18    
Moisture  
Dew Point 40 °F    
Average Humidity 68    
Maximum Humidity 81    
Minimum Humidity 48    
Precipitation  
Precipitation 0.00 in - - ()
Sea Level Pressure  
Sea Level Pressure 30.23 in    
Wind  
Wind Speed 4 mph ()    
Max Wind Speed 8 mph    
Max Gust Speed -    
Visibility 6.2 miles    
Events      
Averages and records for this station are not official NWS values.
T = Trace of Precipitation, MM = Missing Value Source: Averaged Metar Reports

Daily Weather History Graph

Daily Weather History Graph

Search for Another Location

Airport or City:

Trip Planner

Search our weather history database for the weather conditions in past years. The results will help you decide how hot, cold, wet, or windy it might be!

Date:

Astronomy

Dec. 31, 2012 Rise Set
Actual Time 7:54 AM CET 5:01 PM CET
Civil Twilight 7:22 AM CET 5:33 PM CET
Nautical Twilight 6:47 AM CET 6:08 PM CET
Astronomical Twilight 6:12 AM CET 6:43 PM CET
Moon 8:20 PM CET (12/31) 9:23 AM CET (12/31)
Length of Visible Light 10h 10m
Length of Day
9h 07m
Waning Gibbous, 92% of the Moon is Illuminated
Dec 31
Waning Gibbous
Jan 5
Last Quarter
Jan 11
New
Jan 19
First Quarter
Jan 27
Full

Hourly Weather History & Observations

Time (CET) Temp. Windchill Dew Point Humidity Pressure Visibility Wind Dir Wind Speed Gust Speed Precip Events Conditions
7:00 AM 39.2 °F 34.2 °F 33.8 °F 81% 30.24 in - SSW 6.9 mph - N/A   Clear
7:30 AM 39.2 °F 35.0 °F 33.8 °F 81% 30.24 in - South 5.8 mph - N/A   Clear
8:00 AM 37.4 °F 33.8 °F 32.0 °F 81% 30.24 in - South 4.6 mph - N/A   Clear
8:30 AM 39.2 °F 37.0 °F 33.8 °F 81% 30.27 in - SSW 3.5 mph - N/A   Clear
9:00 AM 41.0 °F 35.8 °F 35.6 °F 81% 30.27 in - SSW 8.1 mph - N/A   Clear
9:30 AM 46.4 °F - 39.2 °F 76% 30.27 in - Calm Calm - N/A   Clear
10:00 AM 50.0 °F - 39.2 °F 66% 30.27 in - South 2.3 mph - N/A   Clear
10:30 AM 51.8 °F - 39.2 °F 62% 30.27 in - SW 2.3 mph - N/A   Clear
11:00 AM 57.2 °F - 39.2 °F 51% 30.27 in - Calm Calm - N/A   Clear
11:30 AM 57.2 °F - 37.4 °F 48% 30.24 in - Calm Calm - N/A   Clear
12:00 PM 57.2 °F - 39.2 °F 51% 30.24 in - Variable 3.5 mph - N/A   Clear
12:30 PM 57.2 °F - 42.8 °F 59% 30.24 in - North 4.6 mph - N/A   Clear
1:00 PM 57.2 °F - 44.6 °F 63% 30.21 in - North 5.8 mph - N/A   Clear
2:00 PM 57.2 °F - 44.6 °F 63% 30.21 in 6.2 mi NNE 3.5 mph - N/A   Partly Cloudy
2:30 PM 57.2 °F - 44.6 °F 63% 30.18 in 6.2 mi North 4.6 mph - N/A   Partly Cloudy
3:00 PM 57.2 °F - 44.6 °F 63% 30.18 in 6.2 mi Variable 2.3 mph - N/A   Partly Cloudy
3:30 PM 57.2 °F - 46.4 °F 67% 30.18 in 6.2 mi ESE 4.6 mph - N/A   Partly Cloudy
4:00 PM 55.4 °F - 44.6 °F 67% 30.18 in 6.2 mi East 4.6 mph - N/A   Partly Cloudy
4:30 PM 51.8 °F - 42.8 °F 71% 30.18 in 6.2 mi South 4.6 mph - N/A   Partly Cloudy
5:00 PM 48.2 °F - 41.0 °F 76% 30.18 in 6.2 mi Variable 3.5 mph - N/A   Partly Cloudy
5:30 PM 44.6 °F 43.1 °F 39.2 °F 81% 30.18 in 6.2 mi Variable 3.5 mph - N/A   Partly Cloudy